PLATFORM-1 (52770 NORAD) Tracking and Keplerian Element Data

This shows tracking and keplerian element data for the satellite.

Feedback or suggestion? Click here.




ElementValue
Catalog52770
NamePLATFORM-1
Epoch Orbit1256
Epoch Day228.78878083
Epoch Year2022
RAAN342.6957
Inclination97.5206
Eccentricity0.0011565
Argument of Perigee299.9682
Mean Anonmoly60.0401
Mean Motion15.13737821
Decay Rate3.936E-05
L11 52770U 22057AQ 22228.78878083 .00003936 00000+0 22177-3 0 9994
L22 52770 97.5206 342.6957 0011565 299.9682 60.0401 15.13737821 12564

Live tracking and technical data element details for PLATFORM-1 (NORAD 52770). PLATFORM-1 can be tracked NOW for your location showing map with azimuth and elevation plus other details from your city location.

Track the satellite on the map from your city or location and see movement details for azimuth, elevation, latitude, longitude, range, height, and movement on the map or in text.







IsCatalogInMostPopularTable: catalog: 52770, numindb: 3
Update: records affected: 1



GetName: 52770 PLATFORM-1

Hit Count: updated at: Thu, 18 Aug 2022 20:16:34 GMT